Location: Unspecified
(0.0000°N, 0.0000°E)
Time: 18:00:03
(UTC+00:00)

Hubble Space Telescope - Pass Details

Date: 04 May 2021
Orbit: 535 x 539 km, 28.5° (Epoch: 14 May)

Event Time Altitude Azimuth Distance (km) Brightness Sun altitude
Rises 19:52:22 0° 312° (NW) 2,668 5.3 -27.7°
Reaches altitude 10° 19:54:44 10° 320° (NW) 1,779 4.1 -28.2°
Enters shadow 19:56:38 24° 337° (NNW) 1,141 2.8 -28.7°
